Wind_Speed
17 17 18 18 17 18 18 16 16 16 17 17 17 18 19 20 21 21 21 21 21 21 21 22 22 22 22 22 22 23 24 25 26 26 26 27 27 27 26 26 26 26 26
17 17 17 18 18 17 17 16 16 17 17 17 18 19 20 21 21 21 21 21 21 22 22 22 21 21 21 21 22 22 22 24 26 26 26 25 27 27 27 27 27 27 26
17 18 18 18 18 17 17 17 17 17 18 18 19 20 20 20 20 20 20 21 22 23 23 21 21 22 22 22 22 22 22 23 25 25 25 25 26 25 26 28 28 27 27
18 18 18 18 18 18 18 18 18 18 19 19 19 20 19 20 20 19 19 20 20 21 21 21 22 22 22 23 22 22 23 23 24 25 25 25 25 26 26 26 27 28 28
18 18 18 18 17 18 18 18 19 19 19 20 20 20 20 19 19 20 20 20 20 20 21 21 22 22 22 22 23 22 22 23 24 24 25 25 25 26 27 27 28 29 28
18 19 18 18 18 19 19 19 19 19 19 20 19 19 19 19 20 20 20 20 20 20 21 21 22 22 22 22 22 22 23 23 23 24 25 26 25 26 26 27 27 29 29
19 19 18 18 19 19 19 18 18 18 18 18 18 19 19 19 19 20 20 20 20 20 21 21 21 21 22 22 21 22 23 23 23 24 25 25 25 26 26 27 27 28 29
19 19 18 18 18 18 18 17 18 17 17 18 18 18 18 18 18 19 19 20 20 20 20 20 20 20 20 20 21 21 23 23 24 24 24 25 26 26 26 26 27 28 28
18 18 18 17 16 17 17 17 18 18 17 18 18 18 18 18 18 19 20 20 20 20 19 20 20 20 20 20 21 22 22 23 24 24 25 25 25 26 26 26 27 28 29
18 18 17 16 16 17 17 17 18 18 17 18 18 18 18 18 19 19 19 19 19 19 19 19 20 20 20 20 21 21 22 22 23 24 25 25 25 26 26 27 27 28 29
17 17 17 16 17 17 18 17 18 17 17 18 18 18 18 18 18 18 18 19 19 19 19 19 19 19 19 20 20 21 22 23 23 23 24 25 26 26 26 27 28 28 29
16 16 16 16 17 17 17 17 18 18 18 18 18 18 18 17 18 18 18 19 19 19 18 19 18 19 19 19 19 20 21 22 23 23 24 25 26 26 27 27 27 28 28
16 17 17 17 16 16 17 17 18 17 17 17 18 18 17 17 18 19 19 19 18 18 18 18 18 19 18 18 18 18 19 20 21 22 24 25 25 26 27 27 27 27 27
15 15 15 16 16 16 16 17 17 17 17 18 18 18 17 18 19 19 19 18 18 18 18 19 18 17 16 16 16 16 17 18 20 21 23 23 24 25 26 26 26 26 26
15 15 15 16 17 17 17 17 17 17 17 18 18 18 18 19 19 19 18 18 17 17 18 18 18 17 16 15 15 16 16 17 18 19 20 21 22 23 24 24 24 24 25
15 15 15 16 17 17 17 18 18 18 18 19 18 18 19 19 19 18 18 17 17 18 18 18 17 17 16 16 16 16 16 17 18 19 19 20 20 21 22 22 23 23 24
15 15 16 17 17 18 18 18 19 19 19 19 18 18 19 20 19 19 19 18 18 18 18 18 18 17 17 17 17 17 17 17 17 18 19 20 21 21 21 21 22 23 24
16 16 16 17 18 18 18 19 19 20 20 19 19 20 20 20 19 19 18 18 18 18 18 18 18 17 17 18 18 17 17 18 18 19 20 20 21 21 21 21 22 22 22
16 16 16 17 18 18 19 19 19 20 19 19 19 19 20 20 19 19 18 17 17 18 18 18 18 18 18 17 18 18 18 18 19 20 20 20 21 21 22 22 22 22 23
16 16 17 17 18 18 19 19 20 20 19 19 19 20 20 20 20 19 18 17 17 17 18 19 18 18 18 18 17 17 18 18 18 19 20 20 20 21 21 21 21 21 21
16 17 17 18 18 19 19 19 20 20 19 19 20 20 20 20 20 19 18 17 17 18 19 19 18 18 17 17 17 17 18 18 17 18 19 19 19 19 20 20 20 20 20
18 18 18 18 19 19 19 20 20 19 19 20 20 20 20 20 20 20 19 19 18 18 18 18 18 18 18 18 18 18 18 18 18 18 19 19 18 18 19 19 19 19 19
19 19 19 19 19 19 19 20 20 20 20 20 21 21 21 20 20 20 19 19 19 19 19 19 19 19 19 19 18 18 18 18 19 19 19 19 19 18 18 18 18 18 19
19 19 20 20 20 19 20 20 20 20 20 20 20 20 20 20 20 20 20 20 20 20 20 20 20 20 19 19 19 19 19 19 19 18 19 19 18 18 17 17 17 18 18
20 20 20 20 20 20 20 20 19 19 20 20 20 20 20 20 20 20 20 20 20 21 20 20 20 19 19 19 20 20 19 18 18 18 18 19 19 18 18 18 18 17 17
21 21 21 21 21 20 20 21 20 21 21 21 20 20 20 20 20 20 20 20 21 21 21 20 20 20 20 19 20 19 19 18 18 18 18 19 19 18 18 18 17 17 18
Wind_Direction
313 313 313 311 311 310 308 305 301 296 293 291 290 292 291 287 284 283 285 284 282 279 278 278 277 276 274 271 271 268 264 261 260 260 259 257 256 254 256 256 258 260 260
314 315 314 313 313 311 309 306 303 300 296 294 293 293 294 292 287 285 287 287 285 282 279 279 277 276 274 271 269 267 265 263 262 261 261 262 258 256 256 255 257 260 260
317 315 314 314 312 314 313 309 306 304 300 298 295 294 294 292 289 286 288 287 285 282 280 279 278 278 277 276 272 268 265 264 263 262 263 263 260 260 257 254 256 259 260
319 318 317 316 314 314 313 310 308 306 303 301 298 295 294 293 290 288 289 290 291 287 283 281 278 276 277 276 273 269 266 264 263 263 262 262 260 260 257 257 257 260 260
324 321 319 319 318 316 315 312 309 309 306 304 302 298 295 294 291 290 290 291 292 290 286 283 280 277 277 275 273 272 268 266 264 262 261 262 263 262 259 259 259 260 259
324 322 322 321 321 320 317 315 313 312 310 306 305 301 297 296 295 294 293 293 294 292 288 286 282 279 277 275 273 271 268 266 265 262 261 263 263 263 261 261 258 259 261
324 323 322 320 320 320 319 318 316 315 312 311 310 305 301 300 299 297 295 294 295 293 290 288 285 282 278 275 273 270 268 267 265 263 263 264 263 261 262 261 259 259 260
324 325 324 321 319 321 321 321 321 320 317 317 316 312 308 305 303 301 298 297 297 297 295 291 288 283 278 275 273 271 268 266 264 264 265 267 264 263 263 263 261 259 258
324 327 329 327 325 325 325 323 323 323 320 318 317 314 310 307 305 304 303 301 299 299 298 294 288 283 278 276 274 272 270 266 265 264 265 266 267 265 265 264 262 260 259
325 330 334 331 329 329 326 324 325 325 322 319 317 314 311 310 309 309 308 306 304 302 302 301 294 287 279 276 274 272 271 269 268 267 265 265 266 266 266 266 263 262 263
325 331 331 331 332 329 328 328 328 325 321 318 317 315 313 313 313 312 312 312 309 307 304 303 300 293 285 278 274 274 272 270 269 268 266 265 267 267 268 266 264 264 265
325 331 336 334 332 330 330 330 328 325 321 321 319 317 317 318 318 316 313 312 310 307 305 304 302 299 294 286 278 273 272 271 269 268 266 266 267 267 267 268 267 265 265
321 326 330 333 332 331 330 330 327 325 324 326 326 324 322 320 319 318 317 313 310 308 308 309 306 304 299 292 286 280 274 272 270 269 268 269 268 268 268 268 267 266 267
317 322 325 329 331 331 331 332 331 331 330 331 330 328 325 322 322 319 317 315 313 313 312 312 311 310 306 301 295 288 281 277 274 273 273 271 270 269 270 268 268 268 269
314 317 320 323 328 328 328 330 332 331 330 331 331 330 327 324 322 321 318 318 317 316 316 315 314 313 312 309 304 295 289 283 279 277 276 273 273 273 271 270 270 270 271
312 314 318 320 323 324 325 326 328 329 330 329 328 327 327 325 322 321 320 320 320 319 318 317 316 314 314 314 310 304 296 288 283 281 279 276 276 276 273 272 273 274 274
309 311 316 318 320 322 323 322 324 327 330 329 328 328 328 327 324 322 322 323 323 321 320 319 318 316 314 312 310 306 301 295 291 289 285 281 279 277 274 274 274 274 275
309 311 314 315 318 319 320 321 324 326 327 328 327 328 328 329 327 325 323 323 324 324 322 320 319 317 316 313 309 307 304 299 295 293 292 288 286 282 281 281 280 278 277
311 313 313 314 315 317 319 320 322 323 324 324 325 327 328 329 329 329 325 325 326 326 326 324 321 320 319 317 312 308 306 302 298 296 294 291 289 285 283 283 281 279 277
311 313 313 314 315 317 319 319 319 319 320 320 323 325 327 328 329 329 327 326 329 329 327 325 322 321 320 318 314 311 309 306 301 300 299 296 293 289 286 283 282 280 278
309 311 311 311 312 315 316 317 318 317 318 320 323 325 327 329 330 330 330 329 329 331 330 329 327 325 325 323 318 314 312 309 306 304 304 302 299 294 289 286 284 281 279
306 308 310 311 312 312 313 315 316 316 316 318 321 324 326 330 332 332 331 329 327 328 328 329 328 327 326 324 321 319 317 314 313 310 307 306 305 299 293 288 288 286 283
304 306 309 310 310 312 314 314 314 314 314 316 318 321 322 324 327 330 329 329 328 326 325 326 326 325 324 323 321 319 316 315 315 314 312 310 307 303 299 295 291 288 286
303 305 307 310 311 311 313 314 315 314 314 315 317 319 320 321 324 327 328 328 327 326 325 324 325 325 323 323 323 321 318 314 312 312 313 313 312 308 303 300 296 291 289
302 303 304 307 308 311 313 314 314 313 314 315 316 318 319 320 322 324 326 326 326 325 324 325 325 325 324 323 323 322 320 317 315 315 314 314 314 312 307 303 299 295 292
298 299 301 303 305 308 311 313 313 313 313 314 315 315 318 320 322 324 325 325 325 326 325 325 325 325 324 323 323 322 320 319 319 317 316 314 313 311 307 302 298 295 294
Height
5835 5833 5830 5828 5826 5823 5821 5819 5817 5815 5814 5812 5811 5810 5808 5807 5805 5804 5803 5801 5800 5798 5798 5797 5796 5794 5793 5793 5793 5793 5793 5793 5793 5794 5795 5796 5797 5798 5799 5800 5801 5802 5802
5832 5830 5827 5825 5822 5819 5817 5815 5813 5811 5809 5808 5806 5805 5803 5801 5800 5798 5797 5796 5794 5793 5791 5791 5790 5789 5787 5786 5786 5786 5786 5787 5787 5787 5788 5788 5790 5791 5792 5793 5794 5795 5795
5830 5827 5824 5821 5818 5816 5813 5811 5809 5806 5805 5803 5801 5800 5798 5796 5795 5793 5792 5790 5788 5787 5786 5785 5784 5783 5781 5780 5780 5780 5779 5780 5780 5780 5781 5782 5782 5783 5784 5786 5787 5788 5788
5827 5824 5821 5818 5815 5812 5809 5807 5804 5802 5800 5798 5796 5794 5793 5791 5790 5788 5786 5785 5782 5781 5779 5778 5778 5776 5775 5774 5773 5773 5773 5773 5773 5774 5774 5775 5775 5776 5777 5778 5779 5780 5780
5824 5820 5817 5814 5811 5808 5805 5802 5800 5797 5795 5793 5791 5789 5787 5786 5784 5783 5781 5779 5777 5775 5774 5772 5771 5770 5769 5768 5767 5767 5767 5766 5767 5767 5767 5768 5768 5769 5770 5771 5772 5772 5773
5821 5817 5814 5810 5807 5804 5801 5798 5795 5793 5790 5788 5786 5784 5782 5780 5779 5777 5776 5774 5772 5770 5768 5766 5764 5763 5762 5761 5761 5760 5760 5759 5759 5760 5760 5761 5761 5762 5763 5763 5764 5764 5765
5818 5814 5811 5807 5804 5801 5798 5795 5792 5789 5786 5783 5781 5779 5777 5775 5774 5772 5770 5769 5767 5764 5762 5760 5758 5756 5755 5754 5754 5753 5753 5752 5752 5753 5753 5754 5754 5755 5755 5755 5756 5756 5757
5814 5811 5807 5804 5801 5798 5795 5792 5788 5785 5783 5780 5777 5775 5773 5771 5769 5767 5765 5763 5761 5758 5756 5754 5752 5750 5749 5748 5747 5746 5746 5746 5746 5746 5746 5746 5746 5747 5747 5747 5748 5748 5749
5812 5808 5805 5801 5798 5795 5792 5789 5786 5782 5779 5777 5774 5772 5769 5767 5765 5762 5760 5757 5755 5752 5750 5747 5746 5744 5742 5741 5740 5739 5738 5738 5738 5739 5739 5739 5739 5739 5739 5739 5739 5740 5740
5809 5806 5802 5799 5796 5793 5790 5786 5783 5779 5776 5774 5771 5768 5765 5763 5760 5757 5755 5752 5749 5747 5744 5741 5738 5736 5735 5734 5733 5732 5731 5731 5731 5731 5731 5731 5731 5731 5731 5731 5731 5731 5732
5807 5803 5800 5797 5793 5790 5787 5784 5780 5777 5774 5771 5768 5765 5762 5759 5756 5753 5751 5748 5745 5742 5739 5736 5732 5730 5728 5726 5725 5725 5724 5724 5724 5724 5724 5724 5724 5724 5723 5723 5723 5723 5723
5804 5801 5798 5794 5791 5787 5784 5781 5778 5774 5771 5768 5764 5761 5758 5755 5752 5750 5747 5743 5740 5737 5734 5731 5727 5724 5722 5720 5719 5718 5718 5717 5717 5717 5717 5717 5716 5716 5716 5716 5716 5715 5715
5802 5799 5795 5792 5789 5785 5782 5779 5775 5772 5768 5765 5761 5758 5755 5752 5749 5746 5743 5739 5736 5733 5729 5726 5723 5720 5716 5714 5713 5712 5711 5711 5711 5710 5710 5710 5709 5709 5709 5708 5707 5707 5707
5799 5796 5793 5790 5787 5784 5780 5777 5773 5770 5766 5763 5759 5756 5753 5750 5746 5742 5739 5735 5732 5729 5725 5722 5718 5715 5712 5710 5708 5706 5705 5705 5705 5704 5703 5703 5702 5702 5701 5700 5700 5699 5699
5797 5794 5791 5788 5785 5782 5778 5775 5771 5768 5764 5761 5757 5754 5750 5747 5743 5739 5736 5732 5728 5725 5721 5718 5715 5711 5708 5706 5704 5702 5700 5699 5699 5698 5697 5696 5696 5695 5694 5693 5693 5692 5691
5794 5791 5789 5786 5783 5780 5776 5772 5769 5765 5762 5758 5754 5751 5747 5743 5740 5736 5732 5728 5725 5721 5718 5714 5711 5708 5705 5703 5700 5698 5696 5695 5694 5693 5691 5690 5689 5688 5687 5686 5685 5685 5684
5791 5788 5786 5783 5780 5777 5773 5770 5766 5763 5759 5755 5751 5748 5744 5740 5736 5732 5729 5725 5721 5718 5714 5711 5708 5705 5702 5699 5697 5694 5692 5690 5689 5687 5686 5684 5683 5681 5680 5679 5678 5677 5676
5787 5785 5782 5779 5777 5773 5770 5767 5763 5760 5756 5752 5748 5745 5741 5737 5733 5729 5725 5722 5718 5714 5711 5708 5704 5701 5698 5695 5692 5690 5687 5686 5684 5682 5680 5678 5676 5675 5673 5672 5671 5670 5669
5784 5781 5778 5776 5773 5770 5767 5763 5760 5756 5752 5749 5745 5742 5738 5734 5730 5726 5722 5718 5715 5711 5707 5704 5701 5698 5694 5691 5689 5685 5683 5680 5678 5676 5674 5672 5670 5668 5666 5665 5664 5663 5662
5780 5777 5775 5772 5769 5766 5763 5760 5756 5753 5749 5745 5742 5738 5734 5730 5726 5723 5719 5715 5711 5708 5704 5701 5697 5694 5691 5687 5684 5681 5678 5675 5673 5670 5668 5666 5664 5661 5660 5658 5657 5656 5655
5776 5774 5771 5768 5765 5763 5759 5756 5752 5749 5745 5742 5738 5735 5731 5727 5723 5719 5716 5712 5708 5705 5701 5697 5694 5690 5687 5683 5680 5677 5674 5671 5668 5665 5663 5660 5657 5655 5653 5651 5650 5649 5647
5772 5770 5767 5764 5761 5758 5755 5752 5748 5745 5742 5738 5735 5731 5728 5724 5720 5716 5712 5709 5705 5702 5698 5694 5691 5687 5683 5680 5676 5673 5669 5666 5663 5660 5657 5654 5652 5649 5647 5645 5644 5642 5641
5768 5766 5763 5760 5757 5754 5751 5748 5744 5741 5738 5734 5731 5727 5724 5720 5716 5713 5709 5705 5701 5698 5694 5690 5686 5683 5679 5675 5672 5668 5665 5661 5658 5655 5652 5649 5646 5644 5641 5639 5638 5636 5635
5763 5761 5758 5756 5753 5750 5746 5743 5740 5737 5734 5730 5727 5723 5720 5716 5713 5709 5705 5702 5698 5693 5690 5686 5682 5678 5674 5671 5667 5663 5660 5657 5653 5650 5647 5644 5641 5638 5636 5634 5632 5630 5628
5758 5756 5754 5751 5748 5745 5742 5739 5735 5732 5729 5726 5723 5719 5716 5712 5709 5705 5701 5697 5694 5689 5685 5681 5677 5674 5670 5666 5662 5659 5655 5652 5648 5645 5642 5639 5636 5633 5630 5628 5626 5624 5622
5753 5750 5748 5746 5743 5740 5737 5734 5731 5728 5725 5722 5719 5715 5712 5708 5705 5701 5697 5693 5689 5685 5681 5677 5673 5669 5666 5662 5658 5654 5651 5647 5643 5640 5637 5634 5630 5628 5625 5622 5620 5618 5616